Location: ???????
(55.7027°N, 37.3832°E)
Time: 07:26:27
(UTC+00:00)

In-Cosmos 22 Rocket - Pass Details

Date: 14 April 2026
Orbit: 788 x 886 km, 81.2° (Epoch: 12 May)

Event Time Altitude Azimuth Distance (km) Brightness Sun altitude
Rises 17:36:20 0° 344° (NNW) 3,332 8.1 -8.7°
Reaches altitude 10° 17:38:44 10° 343° (NNW) 2,387 7.3 -9.0°
Maximum altitude 17:44:06 76° 259° (W) 822 4.3 -9.6°
Drops below altitude 10° 17:49:22 10° 175° (S) 2,349 6.1 -10.3°
Enters shadow 17:51:33 - 174° (S) 3,208 6.8 -10.5°
